Torna al catalogo

FENGYUN 1C DEB

AttivoPO
NORAD 32242·DEBRIS·🇨🇳 China

Lanciato May 10, 1999 da Taiyuan Satellite Launch Center

Loading…

Prossimi Passaggi (prossime 24 ore)

TLE

AggiornatoSource: Space-Track

Epoca: Sep 11, 2026, 09:04 UTC

1 32242U 99025CWQ 26254.37824491  .00000922  00000-0  74804-3 0  9994
2 32242  97.2601 108.2506 0158726 270.5319  87.7658 13.86167835666982

Traccia FENGYUN 1C DEB in tempo reale con AllMySat

Download on the App Store